Theta_e
311 312 311 310 310 310 313 316 319 319 319 322 324 324 325 325 325 327 328 329 329 329 329 328 327 327 327 328 330 332 334 338 337 338 340 341 342 343 343 344 345 344 344 344
310 311 310 310 310 309 311 314 317 319 318 320 322 324 324 325 325 326 327 328 328 328 329 328 327 326 326 329 330 332 334 336 339 339 341 342 343 344 344 344 345 345 344 344
310 310 310 309 309 310 311 313 315 317 318 320 321 323 324 324 325 325 325 326 325 326 326 326 326 325 326 327 328 331 333 336 340 339 343 345 345 343 344 344 345 345 345 344
310 309 310 310 309 309 310 310 311 314 318 320 320 323 323 323 324 324 325 325 325 325 325 325 325 326 324 325 325 326 331 337 340 342 341 343 342 343 343 344 345 345 344 343
313 311 309 309 308 309 309 310 311 314 316 318 318 322 322 322 323 323 324 324 323 323 323 323 323 323 322 322 323 325 329 337 341 343 340 343 342 344 345 345 347 345 345 344
313 312 311 310 309 308 310 310 311 314 316 320 318 319 320 320 321 322 322 321 321 321 321 322 323 322 322 321 322 324 331 341 344 344 343 345 344 345 345 346 347 346 346 345
313 313 312 311 309 309 309 311 313 315 317 318 317 319 320 321 320 320 321 320 320 321 322 323 324 326 324 324 325 332 339 344 345 345 345 346 347 347 348 347 345 344 341 340
316 314 312 312 311 311 309 310 314 315 316 315 315 317 318 318 319 320 319 320 321 324 326 328 331 333 326 325 329 337 342 345 346 345 346 347 347 346 345 342 342 340 338 338
314 314 312 311 311 311 310 310 310 311 311 314 315 316 316 318 319 319 319 319 321 324 330 335 337 336 331 327 333 338 343 345 345 345 345 345 344 343 342 342 341 339 339 340
311 315 311 312 312 311 312 310 311 310 315 314 314 316 316 317 317 318 319 320 321 323 326 332 339 337 332 336 340 343 346 346 345 345 345 344 343 342 342 341 339 339 339 338
309 311 312 312 312 313 314 310 311 313 310 310 314 315 317 318 319 320 320 320 320 321 324 331 340 338 338 340 343 346 346 346 345 344 342 341 340 340 340 340 339 339 339 338
309 311 312 311 310 310 311 314 315 317 315 312 313 318 318 319 320 320 319 320 320 321 322 330 340 337 341 343 345 346 345 344 343 341 340 340 339 339 339 338 338 338 336 336
311 311 313 310 313 312 312 310 311 313 314 319 314 315 318 318 317 317 318 319 320 320 321 325 337 337 341 343 344 344 343 342 340 339 339 338 337 337 336 336 336 336 336 335
311 313 312 314 311 311 311 312 312 312 315 313 314 315 316 317 316 317 318 319 318 319 320 323 333 338 339 342 343 343 341 340 338 338 337 336 333 334 336 336 336 335 335 334
311 314 312 310 310 309 310 310 311 313 312 313 313 313 314 315 316 316 317 316 315 318 320 322 330 340 341 342 342 341 340 338 337 336 333 333 335 336 336 336 336 335 334 334
312 313 312 312 310 310 310 310 310 310 310 312 312 313 312 313 313 313 314 314 316 320 320 322 328 340 341 341 341 340 338 337 335 333 332 333 334 335 335 335 335 335 334 333
313 313 313 314 310 309 311 311 311 311 311 312 313 312 313 313 313 314 314 314 316 320 321 323 330 338 341 342 339 338 337 336 334 331 332 333 334 334 334 334 334 334 334 333
312 312 313 313 312 314 314 315 315 315 316 316 316 316 316 316 315 314 314 316 319 320 324 330 334 340 340 340 339 338 337 334 331 331 331 332 332 332 333 334 334 334 334 333
309 312 315 316 317 315 313 314 315 315 315 314 315 316 318 317 317 315 316 318 322 326 328 331 334 339 341 340 339 337 336 331 329 331 331 330 331 332 333 334 334 334 334 333
312 307 313 316 318 319 321 314 311 308 315 313 314 319 320 321 321 319 321 324 326 327 329 331 336 339 341 340 338 337 334 329 330 331 331 330 329 333 333 334 334 334 334 334
316 315 314 316 318 317 315 313 309 318 318 311 312 314 318 320 320 321 321 322 324 326 329 332 337 339 340 339 338 336 332 330 330 331 331 329 331 331 332 333 334 334 333 332
317 317 320 319 321 320 313 313 314 314 312 312 312 315 315 316 318 319 322 324 326 329 331 335 338 339 340 339 337 335 331 329 331 331 329 330 332 332 333 334 333 333 333 332
315 314 316 318 317 314 313 313 313 312 313 313 315 314 316 315 317 319 324 325 328 331 334 336 338 340 340 339 337 334 330 329 331 331 329 331 333 333 334 334 333 333 332 331
312 312 314 314 312 312 313 313 312 312 313 313 313 314 315 316 318 321 323 325 328 331 337 337 338 341 340 338 337 333 329 330 332 331 330 332 333 334 334 334 333 331 332 331
315 313 313 313 310 312 312 311 312 311 311 313 313 314 314 314 318 321 323 324 326 330 337 338 340 341 340 338 337 331 329 331 332 332 330 332 334 334 335 334 331 331 331 330
313 313 315 315 311 312 312 312 311 309 311 314 312 313 313 316 319 318 320 322 326 336 337 339 338 340 339 338 335 329 329 330 332 332 331 332 333 335 334 333 331 330 330 327
Wind_Speed
15 12 17 16 20 29 27 29 26 29 23 25 28 34 32 28 28 24 22 20 19 20 19 22 21 20 19 22 23 22 20 15 12 11 15 14 15 15 16 16 17 18 17 19
12 19 19 19 19 24 28 30 32 22 16 21 28 33 28 27 27 27 26 24 23 21 19 18 21 22 23 22 19 17 15 14 14 12 14 9 13 14 15 15 16 16 17 18
16 20 17 15 17 20 24 27 26 29 16 19 21 29 29 28 28 24 21 22 22 21 21 19 19 23 23 22 20 17 13 12 14 14 13 11 12 12 15 15 15 16 17 18
15 16 17 19 21 21 24 24 27 26 25 19 21 22 24 26 27 28 26 22 21 19 18 18 20 21 26 25 24 21 15 12 12 14 17 17 16 14 14 17 16 17 17 17
18 17 16 18 19 21 23 21 26 20 23 25 29 17 17 17 20 20 19 20 20 19 20 21 20 21 26 25 22 21 17 14 13 17 16 17 15 12 15 17 19 18 17 16
21 16 19 17 17 19 17 17 21 18 20 22 33 24 23 22 25 22 20 16 15 15 14 12 14 17 20 22 20 18 16 13 15 17 16 17 16 16 18 19 20 18 17 16
18 9 13 17 18 18 15 17 13 15 13 16 22 23 20 7 6 12 13 6 5 6 6 8 10 11 12 18 17 14 15 15 16 17 17 16 17 17 19 21 18 18 17 15
9 6 7 7 19 18 18 18 13 19 17 20 22 15 17 17 24 14 10 10 3 6 7 8 10 10 10 13 16 15 16 16 18 18 18 18 19 18 18 16 17 15 15 14
12 6 7 13 11 14 22 18 21 23 24 19 18 24 22 8 9 9 3 5 3 8 9 11 11 8 9 10 14 16 17 18 20 21 20 19 17 17 17 16 16 14 12 13
8 12 5 2 11 20 21 12 13 14 14 17 18 21 12 25 27 16 5 1 7 10 12 13 10 7 5 9 12 16 19 22 22 22 21 19 18 17 18 17 14 14 13 12
15 6 13 9 6 8 13 18 9 16 13 16 13 16 18 12 14 12 5 5 11 13 13 13 10 7 3 10 15 18 20 22 23 22 21 21 20 19 17 16 14 13 11 10
15 6 13 16 4 9 13 8 5 11 14 15 15 3 2 14 15 8 3 9 12 14 14 13 10 4 4 11 17 19 20 22 22 22 22 21 20 18 16 14 12 11 10 10
10 6 11 10 5 9 7 13 12 13 16 14 15 9 10 11 8 5 9 13 13 15 16 13 10 3 3 12 17 19 20 21 22 22 22 20 18 16 15 13 12 11 12 11
12 13 14 13 20 11 10 10 12 12 11 17 16 21 14 17 9 12 14 16 17 16 16 14 9 2 5 11 16 19 20 21 22 21 20 18 17 16 15 13 13 12 12 12
5 14 18 20 19 17 17 18 18 19 19 19 20 18 18 19 18 17 18 20 21 16 15 13 11 4 7 11 17 19 20 21 21 19 18 17 16 15 15 14 13 12 12 12
9 10 12 17 18 19 20 21 22 23 22 23 22 24 23 22 22 22 20 19 17 16 16 14 12 6 10 12 16 19 20 21 20 19 18 16 15 15 14 13 12 13 14 14
6 6 7 14 10 12 14 17 18 19 20 18 20 20 19 21 19 18 18 17 17 16 16 15 11 5 11 17 17 19 21 20 19 18 18 16 15 15 14 13 12 13 14 13
7 8 7 5 9 9 3 9 11 14 17 17 17 19 23 23 20 17 16 15 16 17 16 12 11 4 17 19 22 22 22 20 20 19 17 15 16 15 13 12 11 12 13 13
11 3 4 4 6 12 14 2 1 3 14 17 20 18 19 16 15 16 16 16 10 12 13 12 13 8 18 19 24 24 22 21 20 20 18 16 15 14 13 12 11 12 13 13
8 7 3 4 4 4 5 9 11 4 6 13 15 14 14 15 9 8 9 10 13 15 13 12 15 12 19 21 26 25 23 22 21 21 18 15 15 14 12 11 11 11 11 12
5 2 8 10 8 3 6 13 4 4 5 15 15 16 14 10 10 18 18 18 16 15 15 15 12 14 19 25 26 25 24 22 22 21 19 16 15 13 12 11 10 11 12 14
3 5 3 4 4 3 13 9 3 6 16 14 15 13 14 15 14 16 18 16 16 15 13 13 11 14 21 26 27 25 23 23 23 22 19 19 16 13 13 12 11 11 12 12
3 4 3 3 4 11 9 12 10 11 14 15 13 14 16 12 14 16 16 16 15 14 11 12 13 17 23 27 27 24 24 25 23 21 20 19 15 12 12 11 11 10 10 11
7 3 4 11 7 13 11 10 12 15 18 15 15 14 13 12 15 16 15 14 12 12 9 12 16 16 19 27 26 24 26 26 24 22 20 18 15 13 13 11 9 8 10 10
9 8 9 9 11 15 4 16 14 16 18 14 13 11 10 14 16 15 14 13 13 12 9 14 14 17 21 27 26 24 25 26 24 22 21 18 15 14 13 9 6 6 9 9
3 7 5 8 13 13 17 18 15 16 18 15 9 10 13 15 12 12 12 12 14 13 11 11 15 20 23 25 25 26 25 26 24 21 20 19 16 14 13 11 10 6 11 11
Wind_Direction
248 255 247 255 252 249 260 267 266 255 249 254 226 240 246 244 253 249 252 248 250 250 259 267 269 269 267 261 252 252 256 253 243 231 228 210 209 202 198 199 196 191 191 195
254 249 263 279 280 269 250 252 255 261 283 245 246 243 246 249 250 251 250 252 256 260 260 261 267 264 260 258 257 261 259 256 246 228 222 210 197 198 193 193 188 184 186 189
273 268 282 281 270 259 260 252 251 251 268 239 254 252 249 244 245 253 257 258 260 260 264 268 265 263 264 259 262 266 260 257 245 220 198 182 170 175 181 180 176 178 182 181
290 287 268 259 263 264 260 251 254 249 244 242 219 253 242 233 239 243 248 249 255 257 260 261 265 267 267 268 268 262 253 242 236 207 201 181 186 183 186 175 170 168 173 174
293 289 260 252 258 265 260 253 249 240 240 249 246 251 253 259 254 252 254 255 257 263 262 264 272 274 270 263 257 251 243 235 223 206 197 186 205 176 165 162 154 157 163 169
279 277 262 261 269 292 251 256 239 246 238 230 236 241 253 252 253 250 250 250 260 259 264 266 276 275 264 251 241 237 226 212 203 198 186 189 180 164 157 154 155 154 161 167
311 286 275 234 259 272 245 243 231 221 230 242 227 228 238 242 329 294 250 234 285 286 267 280 279 280 252 232 220 211 200 193 189 180 172 173 166 162 153 154 154 155 162 165
327 324 13 240 227 254 245 231 230 222 224 233 231 234 224 238 253 207 276 267 268 342 336 304 303 288 253 227 201 191 184 180 174 162 157 156 154 151 149 152 152 161 165 172
312 287 275 246 259 263 252 250 241 264 278 246 219 219 251 226 217 204 186 203 340 353 349 341 329 301 252 212 193 189 177 169 162 149 147 146 147 148 146 146 152 152 158 162
308 301 272 276 258 253 244 262 269 243 251 240 236 209 223 216 232 234 164 83 10 6 350 353 350 337 238 177 171 167 162 159 150 146 147 145 142 141 142 145 149 153 154 159
296 281 290 249 234 238 284 226 216 261 259 255 221 221 212 241 190 147 112 25 18 1 350 360 7 341 194 162 153 152 152 148 146 146 143 140 139 138 140 144 146 151 154 166
299 289 284 281 237 178 241 228 322 262 231 252 275 72 111 155 119 113 20 14 2 355 348 1 25 4 179 155 147 147 147 147 145 143 142 140 138 140 142 144 148 156 164 173
349 259 293 286 183 207 236 262 260 248 275 276 253 236 139 153 146 69 359 347 339 343 345 351 27 25 244 152 149 147 149 145 144 143 141 140 140 142 143 145 150 160 161 160
304 265 259 279 303 314 292 282 269 277 263 260 243 263 189 202 298 323 326 317 319 325 331 344 11 68 224 161 152 151 147 146 145 144 142 140 143 145 146 147 153 158 159 160
255 265 269 269 271 280 276 268 262 256 256 264 266 267 266 279 295 310 302 299 299 312 322 338 345 105 215 172 156 151 148 149 147 144 141 144 146 146 146 150 155 158 159 161
229 255 276 292 284 271 271 267 260 254 249 254 258 265 273 277 281 281 287 290 303 311 318 323 320 133 220 174 162 152 152 151 151 147 146 150 149 146 148 151 158 163 164 166
279 269 282 267 282 294 270 264 252 254 250 255 256 260 263 266 270 275 285 290 297 299 307 309 305 255 203 172 163 161 156 156 154 153 149 151 153 150 152 157 167 171 171 169
244 241 250 277 312 248 44 32 3 333 301 287 286 283 270 265 268 276 276 284 294 292 301 311 312 249 178 174 161 163 159 161 159 153 151 151 157 152 155 164 170 168 172 167
215 241 257 249 248 281 272 310 360 284 287 295 282 274 276 279 258 261 266 270 290 304 295 296 292 232 168 175 164 163 163 166 161 155 149 150 152 151 158 166 166 166 162 159
189 213 266 259 263 291 64 350 316 257 255 357 337 316 311 340 263 249 28 328 302 297 297 295 292 183 165 176 166 165 167 168 163 158 154 150 153 151 157 155 164 160 162 159
323 187 220 249 251 257 15 333 333 270 356 312 315 307 306 296 277 313 312 301 297 294 292 289 254 174 173 172 168 170 167 169 163 159 153 151 151 154 149 152 157 157 158 153
301 323 332 300 266 360 359 336 302 290 296 295 294 288 288 287 299 297 286 294 294 293 291 273 199 169 176 171 172 171 169 167 163 159 154 150 152 156 153 155 158 161 157 156
315 353 300 248 262 289 315 281 309 316 307 311 292 284 284 277 291 289 292 293 291 289 282 258 175 171 175 173 175 167 169 167 164 161 159 153 160 160 158 156 152 164 161 155
304 321 273 310 348 327 323 276 330 322 314 303 299 287 276 295 290 289 289 289 298 296 274 214 180 169 170 174 174 169 167 167 164 164 160 159 167 165 162 165 161 163 160 165
285 321 304 295 345 332 321 332 339 326 309 290 291 274 290 291 287 290 294 299 293 283 244 189 181 166 171 173 172 167 166 166 166 168 165 167 167 177 163 152 145 165 146 171
243 326 321 328 341 326 320 322 342 316 301 294 296 297 296 287 293 293 288 292 280 264 176 172 166 167 167 171 168 166 166 168 168 172 174 178 164 173 168 152 141 125 137 154